Location: *
(45.9500°N, 9.0833°E)
Time: 06:46:27
(UTC+00:00)

Cosmos 1633 Rocket - Pass Details

Date: 03 March 2021
Orbit: 606 x 624 km, 82.5° (Epoch: 18 April)

Event Time Altitude Azimuth Distance (km) Brightness Sun altitude
Rises 17:55:40 0° 186° (S) 2,889 6.6 -8.2°
Reaches altitude 10° 17:57:53 10° 186° (S) 1,989 5.8 -8.6°
Maximum altitude 18:02:18 87° 100° (E) 632 3.1 -9.3°
Drops below altitude 10° 18:06:46 10° 9° (N) 2,009 5.6 -10.1°
Sets 18:09:00 0° 10° (N) 2,920 6.4 -10.5°
